Retour au catalogue

STARLINK-33585

ActifCommunicationsVLEO
NORAD 62782·PAYLOAD·🇺🇸 United States

Lancé Jan 21, 2025 depuis Vandenberg Space Force Base

Loading…

Prochains Passages (prochaines 24 heures)

TLE

FraisSource: CelesTrak SupGP

Époque: Sep 14, 2026, 22:58 UTC

1 62782C 25015AA  26257.95743056 -.00068055  00000+0 -21882-2 0  2574
2 62782  53.1571 161.4616 0001301  90.2698 325.3008 15.31739609    19

Suivez STARLINK-33585 en temps réel avec AllMySat

Download on the App Store